This is the latest recevied weather packets stored in our database for station/object DELTON-WX. If no packets are shown the sender has not sent any weather packets the latest 10 day(s).
| Time | Temp. | Humidity | Pressure | Rain* | Wind** | Luminosity | Snow |
|---|---|---|---|---|---|---|---|
| 1778004948 | 11.67° C | 43% | 975.2 hPa | 0 mm | - | - | - |
| 1778004082 | 11.11° C | 43% | 975.2 hPa | 0 mm | - | - | - |
| 1778003149 | 11.67° C | 48% | 974.6 hPa | 0 mm | - | - | - |
| 1778002264 | 10° C | 47% | 973.9 hPa | 0 mm | - | - | - |
| 1778001349 | 10° C | 47% | 973.9 hPa | 0 mm | - | - | - |
| 1778000480 | 11.11° C | 47% | 973.9 hPa | 0 mm | - | - | - |
| 1777999549 | 10.56° C | 54% | 974.7 hPa | 0 mm | - | - | - |
| 1777998667 | 10.56° C | 58% | 973 hPa | 0 mm | - | - | - |
| 1777997749 | 10° C | 58% | 973 hPa | 0 mm | - | - | - |
| 1777996882 | 9.44° C | 58% | 973 hPa | 0 mm | - | - | - |
| 1777995945 | 9.44° C | 54% | 974.8 hPa | 0 mm | - | - | - |
| 1777995070 | 8.89° C | 55% | 973.8 hPa | 0 mm | - | - | - |
| 1777994148 | 9.44° C | 55% | 973.7 hPa | 0 mm | - | - | - |
| 1777993290 | 8.89° C | 55% | 973.7 hPa | 0 mm | - | - | - |
| 1777992349 | 9.44° C | 72% | 973.7 hPa | 2.03 mm | - | - | - |
| 1777991467 | 9.44° C | 60% | 973.7 hPa | 2.03 mm | - | - | - |
| 1777990548 | 8.89° C | 60% | 973.6 hPa | 0 mm | - | - | - |
| 1777989690 | 8.89° C | 60% | 973.6 hPa | 0 mm | - | - | - |
| 1777988748 | 8.89° C | 71% | 973.4 hPa | 0 mm | - | - | - |
| 1777987868 | 10° C | 71% | 973.4 hPa | 0 mm | - | - | - |
| 1777986948 | 9.44° C | 71% | 973.4 hPa | 0 mm | - | - | - |
| 1777986082 | 9.44° C | 71% | 973.4 hPa | 0 mm | - | - | - |
| 1777985147 | 10° C | 72% | 972.5 hPa | 0 mm | - | - | - |
| 1777984268 | 9.44° C | 73% | 971 hPa | 0 mm | - | - | - |
| 1777983348 | 8.89° C | 73% | 971 hPa | 0 mm | - | - | - |
* Rain latest hour (hover to see other rain measurements)
** Current wind speed in m/s (hover to see current wind gust speed)